Flag for Argentina

Past Weather in Buenos Aires, Argentina — Yesterday and Last 2 Weeks

Now
73 °F

Passing clouds.


Feels Like: 76 °F
Forecast: 67 / 47 °F
Wind: 6 mph from Southwest

Location: Buenos Aires Airport
Current Time: Sep 28, 2020 at 5:08:05 pm
Latest Report: Sep 28, 2020 at 4:00 pm
Visibility: N/A
Pressure29.86 "Hg
Humidity: 29%
Dew Point: 39 °F
Location of Buenos AiresLocation

Past Weather in Buenos Aires — Graph

°F

Buenos Aires Temperature Yesterday

Maximum temperature yesterday: 63 °F (at 12:00 am)
Minimum temperature yesterday: 55 °F (at 7:00 pm)
Average temperature yesterday: 60 °F

High & Low Weather Summary for the Past Weeks

 TemperatureHumidityPressure
High79 °F (Sep 17, 5:00 pm)100% (Sep 26, 3:00 am)30.42 "Hg (Sep 26, 3:00 am)
Low45 °F (Sep 21, 3:00 am)17% (Sep 20, 3:00 pm)29.62 "Hg (Sep 27, 4:00 am)
Average59 °F64%30.03 "Hg
* Reported Sep 13 3:00 pm — Sep 28 3:00 pm, Buenos Aires. Weather by CustomWeather, © 2020

Note: Actual official high and low records may vary slightly from our data, if they occured in-between our weather recording intervals... More about our weather records

Buenos Aires Weather History for the Previous 24 Hours

Scroll right to see more
 ConditionsComfort  
Time TempWeatherWind HumidityBarometerVisibility
3:00 pm
Mon, Sep 28
72 °FPassing clouds.7 mph29%29.89 "HgN/A
2:00 pm72 °FSunny.8 mph29%29.89 "Hg10 mi
1:00 pm70 °FPassing clouds.8 mph31%29.92 "HgN/A
12:00 pm68 °FPassing clouds.8 mph30%29.92 "HgN/A
11:00 am64 °FPassing clouds.7 mph37%29.92 "HgN/A
10:00 am61 °FPassing clouds.7 mph39%29.95 "HgN/A
9:00 am55 °FPassing clouds.8 mph38%29.92 "HgN/A
8:00 am54 °FPassing clouds.7 mph41%29.92 "HgN/A
7:00 am50 °FPassing clouds.7 mph54%29.89 "HgN/A
6:00 am50 °FPassing clouds.6 mph58%29.86 "HgN/A
5:00 am50 °FPassing clouds.6 mph62%29.86 "HgN/A
4:00 am52 °FPassing clouds.7 mph67%29.86 "HgN/A
3:00 am54 °FPassing clouds.8 mph67%29.86 "HgN/A
2:00 am55 °FPassing clouds.8 mph77%29.86 "HgN/A
1:00 am55 °FPassing clouds.6 mph88%29.86 "HgN/A
12:00 am55 °FPassing clouds.5 mph88%29.86 "HgN/A
11:00 pm
Sun, Sep 27
57 °FPassing clouds.6 mph77%29.86 "HgN/A
10:00 pm57 °FPassing clouds.9 mph82%29.83 "HgN/A
9:00 pm57 °FPassing clouds.9 mph82%29.80 "HgN/A
8:00 pm57 °FPassing clouds.9 mph82%29.77 "HgN/A
7:00 pm55 °FDrizzle. Fog.9 mph94%29.77 "Hg4 mi
6:29 pm57 °FDrizzle. Fog.9 mph88%29.74 "Hg2 mi
6:00 pm57 °FBroken clouds.13 mph88%29.74 "Hg3 mi
5:20 pm59 °FDrizzle. Broken clouds.12 mph88%29.71 "Hg2 mi
5:03 pm61 °FDrizzle. Broken clouds.13 mph83%29.68 "Hg1 mi
Weather by CustomWeather, © 2020

See weather overview